Wind_Speed
5 7 8 10 10 11 10 9 9 9 8 7 7 7 7 7 6 6 6 6 5 5 4 4 4 4 3 3 3 3 3 3 4 4 5 6 6 7 7 8 9 10 10
5 7 8 9 10 10 10 9 9 9 8 7 7 7 7 7 6 5 5 5 5 4 4 4 3 3 3 2 2 2 2 3 3 3 4 5 6 6 7 8 9 9 9
5 7 8 9 9 9 9 9 8 8 7 7 7 7 7 6 5 5 4 4 4 4 3 3 3 3 2 2 2 2 2 2 3 3 4 5 5 6 6 8 8 8 8
6 7 7 8 9 9 9 9 8 8 8 7 7 7 6 6 5 4 4 3 3 3 3 3 2 2 2 2 1 1 1 2 2 3 4 4 5 5 5 7 8 8 8
5 7 7 8 9 9 9 9 9 8 8 8 7 7 6 5 4 4 4 3 2 2 2 2 2 2 2 2 2 1 2 2 2 3 3 4 4 4 5 6 7 7 7
6 7 7 9 10 10 10 10 10 9 8 8 7 7 6 6 5 4 4 3 2 2 1 1 1 1 1 2 2 2 2 2 2 3 3 4 4 4 5 6 6 6 6
4 6 8 9 10 10 11 11 10 10 9 8 8 7 6 6 5 4 4 3 2 1 1 1 1 1 1 2 2 2 2 2 2 3 3 3 4 4 4 5 5 5 5
4 6 7 9 9 11 12 12 11 10 10 9 8 8 7 6 5 4 4 3 2 2 1 1 1 1 2 2 2 2 2 1 1 3 3 3 3 3 4 4 4 4 4
4 5 6 8 10 11 12 12 12 11 10 10 9 8 7 6 6 5 4 3 2 2 1 1 1 1 1 2 1 2 2 1 1 2 3 3 3 3 3 4 4 4 4
4 5 6 8 10 11 12 13 13 13 12 11 10 9 8 7 6 6 5 3 3 2 2 2 1 1 2 2 2 2 2 1 1 2 3 3 3 3 3 3 3 4 4
5 6 7 8 9 11 13 14 14 13 13 12 11 9 9 8 7 6 5 4 3 3 3 2 1 1 2 2 2 2 2 1 1 1 3 3 3 3 3 3 3 4 4
6 7 7 8 10 11 13 14 15 15 14 12 11 10 9 8 7 5 4 4 4 3 3 2 2 2 2 2 2 2 2 1 1 1 2 3 3 3 3 3 3 4 4
8 8 8 8 10 11 13 14 15 16 15 13 12 11 10 8 7 6 5 4 4 3 3 2 2 2 3 3 3 2 2 1 0 1 2 3 4 4 4 4 4 4 4
9 9 9 9 9 10 13 14 15 16 15 14 13 12 11 9 7 6 5 4 4 3 3 2 2 3 4 4 3 2 1 1 1 1 2 2 3 3 4 5 5 5 5
11 10 9 9 9 10 12 14 15 16 15 14 13 12 11 9 8 7 6 5 4 4 3 3 3 3 4 4 3 3 2 2 1 1 1 2 3 3 3 5 5 5 5
12 11 10 9 8 9 12 14 15 16 16 15 14 13 12 11 10 8 7 5 5 4 4 3 3 3 3 3 3 3 3 2 2 1 1 1 2 2 3 3 4 4 4
13 12 10 9 7 8 11 13 15 16 15 15 14 13 12 12 11 9 7 6 5 4 4 3 3 2 3 3 2 2 3 2 2 2 1 1 1 2 2 2 3 4 4
13 13 11 9 7 7 9 12 14 15 15 15 15 14 13 12 11 9 8 7 6 5 4 4 3 2 3 2 2 2 2 2 2 1 1 1 1 1 2 2 3 3 4
14 13 12 9 7 5 7 10 12 15 15 15 15 14 13 12 11 10 9 8 7 6 5 4 4 3 3 2 2 2 2 3 2 2 1 1 1 1 2 2 3 3 3
14 13 12 10 7 6 7 10 11 13 14 15 15 13 13 12 11 10 9 9 8 7 6 5 5 4 4 3 2 2 2 2 2 2 2 2 1 2 2 2 3 3 4
14 13 12 10 8 7 7 9 11 13 14 14 14 14 13 13 12 11 10 9 9 8 8 7 6 6 5 4 4 3 3 3 2 2 2 2 2 2 2 2 3 3 3
13 12 12 11 9 7 7 7 9 11 14 14 14 13 14 14 13 12 11 10 10 9 9 8 8 7 6 6 5 5 4 3 3 3 3 3 3 2 3 3 3 3 3
13 13 13 11 9 7 6 6 8 10 13 15 14 14 14 15 15 14 13 11 11 10 10 10 9 9 8 7 7 6 5 5 4 4 4 4 4 4 4 4 4 4 4
14 13 13 11 8 7 6 6 7 9 10 13 14 14 15 15 14 14 14 13 12 12 11 11 11 10 9 9 9 8 7 7 6 6 6 6 5 5 5 6 6 6 7
13 13 13 11 9 7 6 6 7 8 9 11 13 14 15 15 14 14 15 15 14 13 13 13 12 12 11 11 10 10 10 9 9 9 9 8 8 8 8 8 9 9 9
13 13 12 11 8 6 6 6 7 8 8 9 11 13 14 14 15 15 15 16 15 15 14 14 14 13 13 12 12 12 12 11 11 11 11 11 11 11 12 12 13 13 13
Wind_Direction
170 162 165 169 164 164 166 170 173 171 167 166 168 167 161 156 151 146 137 130 124 120 118 117 114 107 104 103 93 86 87 96 98 108 118 119 112 111 111 111 114 119 119
190 174 170 172 164 167 172 179 179 179 177 178 179 177 171 166 160 153 143 135 128 124 121 123 121 111 108 104 91 83 91 105 102 111 123 126 118 119 121 121 119 120 120
203 191 189 177 171 173 179 183 185 187 188 190 189 186 184 179 171 163 156 146 137 129 125 126 124 117 118 116 101 88 91 118 110 115 125 127 124 120 121 121 120 120 119
206 203 196 189 187 188 190 192 194 195 197 197 197 196 195 191 184 179 172 160 148 134 125 121 127 128 132 136 124 100 89 105 117 118 126 130 131 130 129 122 123 123 122
221 210 207 203 198 197 198 199 201 202 204 204 207 209 208 205 200 196 186 171 156 140 128 118 126 135 135 144 140 123 104 110 124 126 122 133 139 135 136 132 130 129 129
230 219 215 210 208 205 204 205 207 208 210 213 216 218 218 218 213 206 197 185 170 151 135 124 126 140 141 146 157 138 132 122 140 144 133 133 131 131 135 138 137 135 136
240 228 225 216 212 211 209 210 211 211 214 219 224 227 227 227 224 217 210 198 186 183 178 159 141 152 151 153 157 156 159 153 157 161 148 138 136 133 136 144 146 146 147
262 236 231 220 216 215 214 214 214 216 220 226 230 231 233 233 233 228 219 208 202 200 182 187 190 161 158 154 154 164 170 162 160 165 159 152 147 146 147 157 158 155 147
280 253 241 230 223 220 217 216 217 221 226 231 234 235 236 240 237 231 223 215 211 210 211 207 201 176 168 168 163 176 168 147 134 164 175 172 167 164 162 169 167 170 170
302 267 250 237 228 223 221 219 220 224 227 232 237 238 241 242 239 236 231 223 220 222 214 208 211 211 184 176 183 175 168 156 157 191 189 185 187 186 182 185 186 187 189
307 279 261 248 235 226 223 222 223 223 224 230 236 240 242 240 241 241 240 229 226 226 221 222 223 209 189 187 194 178 167 150 184 198 204 196 197 196 194 203 198 197 202
315 292 276 263 245 231 225 223 223 222 222 228 234 237 240 239 243 244 243 232 228 226 224 225 224 205 199 201 201 189 173 160 220 234 224 213 206 207 208 211 210 210 216
321 304 285 268 251 236 226 222 221 221 221 226 232 234 237 239 242 243 243 238 233 226 224 217 207 205 216 209 206 197 200 192 218 224 221 218 212 216 219 223 222 226 231
324 314 297 274 255 238 226 222 220 219 222 224 230 234 235 240 245 244 244 245 239 228 220 203 207 206 214 216 219 209 216 197 167 222 229 217 213 219 225 224 227 237 243
331 320 306 290 262 241 229 225 220 220 223 224 226 231 234 242 250 250 251 246 239 234 229 217 216 221 221 218 219 219 212 184 179 249 252 222 214 224 231 231 231 241 249
335 325 312 300 273 245 235 230 223 220 224 224 225 229 234 241 249 253 252 251 244 240 234 222 221 227 225 218 222 225 212 202 214 241 211 210 227 236 232 232 235 246 262
333 329 321 310 287 257 244 236 227 223 223 223 227 231 235 241 249 252 249 250 251 248 241 236 233 229 222 220 221 206 204 225 216 212 223 220 237 234 240 242 247 259 266
333 331 327 322 299 266 248 235 228 227 226 225 228 231 236 240 246 247 246 249 252 250 248 239 234 214 206 209 205 203 213 214 205 203 228 220 218 246 250 254 263 268 272
334 331 329 329 316 274 250 233 227 227 225 227 228 230 234 239 243 245 246 249 248 244 244 238 229 212 204 204 204 209 206 199 207 215 214 236 256 271 272 271 279 276 281
332 330 328 328 317 284 257 244 234 227 227 228 227 227 230 236 242 245 245 245 244 240 241 237 228 219 216 216 217 214 208 202 213 221 221 236 265 277 281 291 293 291 288
332 330 327 322 313 294 274 250 237 228 227 225 225 226 228 230 236 240 240 240 242 241 243 242 236 229 228 228 228 230 221 221 236 244 235 250 261 274 275 299 304 302 304
328 329 329 323 310 299 281 256 234 227 225 224 224 226 229 230 235 237 238 240 241 243 242 244 244 238 235 236 235 240 235 233 247 250 260 265 266 273 279 286 291 294 305
329 327 327 323 310 296 282 262 244 233 226 225 225 226 230 233 236 237 237 237 241 244 245 245 246 240 239 240 242 246 244 245 251 258 265 268 271 272 276 280 288 293 299
326 326 325 323 307 292 280 260 245 236 229 223 224 226 231 236 234 234 237 240 242 243 245 243 244 242 243 244 244 246 249 247 250 251 259 263 271 277 282 285 288 289 291
321 322 324 322 313 294 278 256 241 233 229 224 224 226 230 233 233 233 235 239 241 241 241 243 244 245 245 246 246 246 249 250 254 255 260 264 270 276 281 283 286 285 287
320 320 321 320 316 299 278 256 238 230 231 231 229 229 231 235 238 237 236 239 240 240 242 244 246 246 246 247 247 248 250 253 259 261 265 267 271 274 277 281 284 286 286
Height
5881 5882 5883 5884 5885 5887 5888 5890 5890 5891 5892 5893 5893 5893 5893 5894 5894 5894 5894 5894 5894 5895 5895 5895 5895 5895 5895 5896 5896 5896 5896 5897 5897 5897 5898 5898 5899 5899 5900 5901 5901 5902 5903
5882 5883 5884 5885 5886 5888 5889 5890 5891 5892 5893 5893 5894 5894 5894 5895 5895 5895 5895 5895 5895 5895 5896 5896 5896 5896 5896 5896 5897 5897 5897 5898 5898 5898 5899 5899 5900 5901 5901 5902 5903 5904 5904
5883 5883 5884 5885 5886 5888 5889 5891 5892 5892 5893 5894 5894 5895 5895 5895 5896 5896 5896 5896 5896 5896 5896 5897 5897 5897 5897 5897 5897 5898 5898 5898 5899 5899 5900 5900 5901 5902 5902 5903 5904 5905 5906
5883 5884 5885 5886 5887 5888 5890 5891 5892 5893 5894 5894 5895 5895 5896 5896 5896 5896 5896 5896 5897 5897 5897 5897 5897 5898 5898 5898 5898 5898 5899 5899 5900 5900 5900 5901 5902 5903 5904 5904 5905 5906 5907
5882 5883 5884 5886 5887 5888 5890 5891 5892 5893 5894 5894 5895 5896 5896 5896 5897 5897 5897 5897 5897 5897 5898 5898 5898 5898 5898 5898 5899 5899 5900 5900 5900 5901 5901 5902 5903 5904 5905 5905 5906 5907 5908
5882 5883 5884 5885 5887 5888 5889 5891 5892 5893 5894 5895 5895 5896 5896 5897 5897 5897 5897 5897 5898 5898 5898 5898 5899 5899 5899 5899 5899 5900 5900 5901 5901 5901 5902 5903 5904 5905 5905 5906 5907 5908 5909
5882 5882 5883 5884 5886 5887 5889 5890 5892 5893 5894 5895 5895 5896 5896 5897 5897 5897 5898 5898 5898 5898 5899 5899 5899 5899 5899 5899 5900 5900 5901 5901 5901 5902 5903 5904 5905 5905 5906 5907 5908 5909 5910
5881 5882 5882 5883 5885 5887 5888 5890 5891 5892 5893 5894 5895 5896 5896 5897 5897 5897 5898 5898 5898 5898 5899 5899 5899 5899 5899 5900 5900 5901 5901 5902 5902 5902 5903 5904 5905 5906 5907 5907 5908 5909 5910
5881 5881 5882 5883 5884 5885 5887 5889 5890 5892 5893 5894 5895 5896 5896 5897 5897 5897 5898 5898 5898 5898 5899 5899 5900 5900 5900 5900 5900 5901 5901 5902 5902 5903 5904 5904 5905 5906 5907 5908 5909 5910 5911
5879 5880 5880 5881 5882 5884 5886 5887 5889 5891 5892 5893 5894 5895 5896 5897 5897 5897 5897 5898 5898 5898 5899 5899 5900 5900 5900 5900 5901 5901 5901 5902 5902 5903 5904 5905 5906 5906 5907 5908 5909 5910 5911
5879 5879 5879 5879 5881 5882 5884 5885 5887 5889 5891 5892 5893 5894 5895 5896 5896 5897 5897 5898 5898 5898 5899 5899 5899 5900 5900 5900 5901 5901 5901 5902 5902 5903 5904 5905 5906 5906 5907 5908 5909 5910 5911
5878 5878 5878 5878 5879 5880 5882 5883 5885 5887 5889 5891 5892 5894 5895 5895 5896 5897 5897 5898 5898 5898 5899 5899 5899 5900 5900 5900 5901 5901 5901 5902 5902 5903 5904 5905 5906 5906 5907 5908 5909 5910 5911
5877 5876 5876 5876 5877 5878 5880 5881 5884 5886 5888 5890 5891 5893 5894 5895 5896 5896 5897 5897 5898 5898 5898 5899 5899 5900 5900 5900 5901 5901 5901 5902 5902 5903 5904 5904 5905 5906 5907 5908 5909 5910 5911
5875 5874 5874 5874 5874 5875 5877 5879 5881 5884 5886 5888 5890 5892 5893 5894 5895 5896 5897 5897 5898 5898 5898 5899 5899 5900 5900 5900 5900 5901 5902 5902 5903 5903 5904 5904 5905 5906 5906 5907 5909 5909 5910
5874 5873 5873 5872 5872 5873 5874 5877 5879 5882 5884 5886 5888 5890 5892 5893 5894 5895 5896 5897 5897 5898 5898 5899 5899 5899 5900 5900 5900 5901 5901 5902 5903 5903 5903 5904 5905 5905 5906 5907 5908 5909 5909
5873 5872 5871 5870 5870 5871 5873 5875 5877 5880 5882 5885 5887 5889 5891 5892 5894 5895 5896 5896 5897 5897 5898 5899 5899 5899 5900 5900 5900 5901 5901 5902 5902 5903 5904 5904 5905 5905 5906 5907 5907 5908 5908
5872 5871 5870 5869 5869 5870 5871 5873 5875 5878 5881 5883 5885 5887 5889 5891 5892 5894 5895 5896 5896 5897 5898 5899 5899 5899 5900 5900 5900 5901 5901 5902 5903 5903 5904 5904 5905 5905 5906 5906 5907 5907 5908
5872 5870 5869 5868 5867 5868 5869 5871 5873 5876 5878 5881 5884 5886 5888 5889 5891 5893 5894 5895 5896 5897 5898 5898 5899 5899 5900 5900 5900 5901 5901 5902 5902 5903 5903 5904 5904 5905 5905 5906 5906 5907 5907
5872 5870 5868 5867 5867 5867 5868 5869 5872 5874 5876 5879 5882 5884 5886 5888 5890 5892 5893 5894 5895 5896 5897 5898 5898 5899 5900 5900 5900 5901 5901 5902 5902 5903 5903 5904 5904 5904 5905 5905 5906 5906 5907
5871 5869 5867 5866 5866 5866 5866 5868 5870 5872 5874 5877 5879 5882 5884 5886 5889 5890 5892 5893 5895 5896 5896 5897 5898 5899 5899 5900 5900 5901 5901 5902 5902 5902 5903 5903 5904 5904 5904 5905 5905 5905 5906
5870 5868 5867 5865 5865 5864 5865 5866 5868 5870 5872 5875 5877 5880 5883 5885 5887 5889 5891 5892 5894 5895 5896 5896 5897 5898 5899 5899 5900 5901 5901 5901 5902 5902 5902 5903 5903 5903 5903 5904 5904 5904 5905
5869 5867 5866 5864 5863 5863 5863 5864 5866 5867 5870 5873 5875 5878 5881 5883 5885 5887 5889 5891 5893 5894 5894 5895 5896 5897 5898 5899 5899 5900 5900 5901 5901 5902 5902 5902 5903 5903 5903 5903 5904 5904 5904
5868 5867 5865 5863 5861 5861 5861 5862 5864 5866 5868 5871 5874 5876 5879 5881 5883 5885 5887 5889 5891 5892 5893 5894 5895 5896 5897 5897 5898 5899 5899 5900 5900 5901 5901 5902 5902 5902 5902 5902 5903 5903 5903
5868 5866 5864 5862 5860 5860 5860 5861 5862 5864 5866 5869 5872 5874 5876 5879 5881 5883 5885 5887 5888 5890 5891 5892 5893 5894 5895 5896 5896 5897 5898 5899 5899 5900 5900 5900 5901 5901 5901 5901 5901 5901 5902
5867 5865 5863 5861 5859 5859 5859 5860 5861 5863 5865 5867 5870 5872 5874 5876 5878 5880 5883 5884 5886 5888 5889 5890 5891 5892 5893 5894 5895 5896 5896 5897 5898 5898 5899 5899 5899 5899 5900 5900 5900 5899 5900
5866 5864 5862 5861 5859 5858 5858 5859 5860 5862 5864 5866 5868 5870 5872 5874 5876 5878 5880 5882 5883 5885 5886 5888 5889 5890 5891 5892 5893 5894 5894 5895 5896 5896 5897 5897 5897 5898 5897 5897 5898 5897 5897